Location: Excel
(51.3833°N, 110.5667°W)
Time: 13:28:30
(UTC+00:00)

Envisat - Pass Details

Date: 07 December 2021
Orbit: 764 x 766 km, 98.2° (Epoch: 28 January)

Event Time Altitude Azimuth Distance (km) Brightness Sun altitude
Rises 13:38:31 0° 8° (N) 3,248 6.1 -13.8°
Reaches altitude 10° 13:41:01 10° 359° (N) 2,317 5.3 -13.5°
Maximum altitude 13:45:29 32° 298° (WNW) 1,308 3.7 -12.8°
Drops below altitude 10° 13:49:56 10° 236° (WSW) 2,302 5.1 -12.2°
Sets 13:52:26 0° 227° (SW) 3,224 6.0 -11.8°
